Location: Chateh
(58.6667°N, 118.6000°W)
Time: 08:41:22
(UTC+00:00)

O/OREOS (USA 219) - Pass Details

Date: 15 December 2023
Orbit: 621 x 646 km, 72.0° (Epoch: 22 May)

Event Time Altitude Azimuth Distance (km) Brightness Sun altitude
Exits shadow 13:19:04 36° 359° (N) 1,009 ? -23.6°
Maximum altitude 13:20:24 47° 44° (NE) 843 ? -23.4°
Drops below altitude 10° 13:24:46 10° 119° (ESE) 2,018 ? -22.9°
Sets 13:27:07 0° 126° (SE) 2,927 ? -22.6°
